TimeCST,TemperatureF,Dew PointF,Humidity,Sea Level PressureIn,VisibilityMPH,Wind Direction,Wind SpeedMPH,Gust SpeedMPH,PrecipitationIn,Events,Conditions,WindDirDegrees,DateUTC
12:15 AM,54.9,53.1,94,30.07,10.0,NNE,3.5,-,N/A,,Overcast,30,2012-12-06 06:15:00
12:35 AM,54.9,53.1,94,30.07,10.0,Calm,Calm,-,N/A,,Overcast,0,2012-12-06 06:35:00
12:55 AM,54.9,52.9,93,30.06,10.0,Calm,Calm,-,N/A,,Overcast,0,2012-12-06 06:55:00
1:15 AM,54.7,53.1,94,30.06,10.0,NNW,3.5,-,N/A,,Overcast,340,2012-12-06 07:15:00
1:35 AM,54.5,53.6,97,30.07,5.0,NW,4.6,-,N/A,,Overcast,320,2012-12-06 07:35:00
1:55 AM,54.5,53.6,97,30.06,5.0,Calm,Calm,-,N/A,,Overcast,0,2012-12-06 07:55:00
2:15 AM,54.5,53.6,97,30.05,7.0,Calm,Calm,-,N/A,,Overcast,0,2012-12-06 08:15:00
2:35 AM,54.5,53.6,97,30.05,7.0,Calm,Calm,-,N/A,,Overcast,0,2012-12-06 08:35:00
2:55 AM,54.5,53.4,96,30.05,10.0,Calm,Calm,-,N/A,,Overcast,0,2012-12-06 08:55:00
7:35 AM,55.2,53.8,95,30.04,7.0,Calm,Calm,-,N/A,,Overcast,0,2012-12-06 13:35:00
7:55 AM,55.4,54.1,96,30.04,10.0,Calm,Calm,-,N/A,,Overcast,0,2012-12-06 13:55:00
8:15 AM,55.4,54.0,95,30.04,7.0,Calm,Calm,-,N/A,,Overcast,0,2012-12-06 14:15:00
8:35 AM,55.8,54.3,95,30.04,7.0,Calm,Calm,-,N/A,,Overcast,0,2012-12-06 14:35:00
8:55 AM,55.8,54.1,94,30.04,7.0,Calm,Calm,-,N/A,,Overcast,0,2012-12-06 14:55:00
9:15 AM,55.9,54.3,94,30.04,7.0,Calm,Calm,-,N/A,,Overcast,0,2012-12-06 15:15:00
9:35 AM,56.3,54.5,94,30.05,7.0,Calm,Calm,-,N/A,,Overcast,0,2012-12-06 15:35:00
9:55 AM,56.5,54.3,92,30.05,7.0,Calm,Calm,-,N/A,,Overcast,0,2012-12-06 15:55:00
10:15 AM,57.0,54.7,92,30.04,7.0,Calm,Calm,-,N/A,,Overcast,0,2012-12-06 16:15:00
10:35 AM,57.0,54.7,92,30.03,7.0,Calm,Calm,-,N/A,,Overcast,0,2012-12-06 16:35:00
10:55 AM,58.1,55.4,91,30.03,7.0,Calm,Calm,-,N/A,,Overcast,0,2012-12-06 16:55:00
11:15 AM,57.7,55.2,91,30.02,7.0,Calm,Calm,-,N/A,,Overcast,0,2012-12-06 17:15:00
11:35 AM,58.1,55.4,91,30.02,7.0,Calm,Calm,-,N/A,,Overcast,0,2012-12-06 17:35:00
11:55 AM,58.5,55.6,90,30.01,10.0,Calm,Calm,-,N/A,,Overcast,0,2012-12-06 17:55:00
12:15 PM,58.6,55.4,89,30.00,7.0,Calm,Calm,-,N/A,,Overcast,0,2012-12-06 18:15:00
12:35 PM,59.2,55.8,88,30.00,10.0,Calm,Calm,-,N/A,,Overcast,0,2012-12-06 18:35:00
12:55 PM,59.2,55.8,88,29.98,10.0,Calm,Calm,-,N/A,,Overcast,0,2012-12-06 18:55:00
1:15 PM,59.9,56.1,87,29.97,10.0,Calm,Calm,-,N/A,,Overcast,0,2012-12-06 19:15:00
1:35 PM,59.9,55.9,87,29.97,10.0,Calm,Calm,-,N/A,,Overcast,0,2012-12-06 19:35:00
1:55 PM,60.3,56.3,87,29.96,10.0,Calm,Calm,-,N/A,,Overcast,0,2012-12-06 19:55:00
2:15 PM,60.4,56.5,87,29.96,10.0,Calm,Calm,-,N/A,,Overcast,0,2012-12-06 20:15:00
2:35 PM,60.8,56.5,86,29.95,10.0,Calm,Calm,-,N/A,,Overcast,0,2012-12-06 20:35:00
2:55 PM,60.4,56.3,86,29.95,10.0,Calm,Calm,-,N/A,,Overcast,0,2012-12-06 20:55:00
3:15 PM,60.6,56.8,87,29.95,10.0,Calm,Calm,-,N/A,,Overcast,0,2012-12-06 21:15:00
3:35 PM,60.4,56.7,87,29.95,10.0,Calm,Calm,-,N/A,,Overcast,0,2012-12-06 21:35:00
3:55 PM,60.8,56.5,86,29.95,10.0,Calm,Calm,-,N/A,,Overcast,0,2012-12-06 21:55:00
4:15 PM,60.8,57.0,87,29.94,10.0,ESE,3.5,-,N/A,,Overcast,120,2012-12-06 22:15:00
4:35 PM,60.6,57.0,88,29.94,10.0,ESE,4.6,-,N/A,,Overcast,110,2012-12-06 22:35:00
4:55 PM,60.3,57.2,90,29.94,10.0,ESE,4.6,-,N/A,,Overcast,110,2012-12-06 22:55:00
5:15 PM,60.1,57.4,91,29.94,10.0,SE,3.5,-,N/A,,Overcast,130,2012-12-06 23:15:00
5:35 PM,59.9,57.4,91,29.94,10.0,ESE,3.5,-,N/A,,Overcast,120,2012-12-06 23:35:00
5:55 PM,59.5,57.4,93,29.94,10.0,ESE,3.5,-,N/A,,Overcast,110,2012-12-06 23:55:00
6:15 PM,59.0,57.2,94,29.94,10.0,East,3.5,-,N/A,,Overcast,100,2012-12-07 00:15:00
6:35 PM,58.1,56.7,95,29.94,10.0,ESE,5.8,-,N/A,,Scattered Clouds,110,2012-12-07 00:35:00
6:55 PM,58.1,57.0,96,29.94,10.0,ESE,5.8,-,N/A,,Clear,110,2012-12-07 00:55:00
7:15 PM,57.2,56.5,97,29.94,7.0,ESE,4.6,-,N/A,,Clear,120,2012-12-07 01:15:00
7:35 PM,56.3,55.6,97,29.95,5.0,Calm,Calm,-,N/A,,Clear,0,2012-12-07 01:35:00
7:55 PM,53.6,53.4,99,29.94,0.2,Calm,Calm,-,N/A,Fog,Fog,0,2012-12-07 01:55:00
8:35 PM,52.5,52.5,100,29.95,0.2,Calm,Calm,-,N/A,Fog,Fog,0,2012-12-07 02:35:00
8:55 PM,52.0,52.0,100,29.95,0.2,Calm,Calm,-,N/A,Fog,Fog,0,2012-12-07 02:55:00
9:15 PM,51.4,51.4,100,29.94,0.2,Calm,Calm,-,N/A,Fog,Fog,0,2012-12-07 03:15:00
9:35 PM,52.0,52.0,100,29.94,0.2,Calm,Calm,-,N/A,Fog,Fog,0,2012-12-07 03:35:00
9:55 PM,52.7,52.7,100,29.94,0.2,Calm,Calm,-,N/A,Fog,Fog,0,2012-12-07 03:55:00
10:15 PM,52.0,52.0,100,29.94,0.2,Calm,Calm,-,N/A,Fog,Fog,0,2012-12-07 04:15:00
10:35 PM,53.1,53.1,100,29.94,0.2,SSE,3.5,-,N/A,Fog,Fog,150,2012-12-07 04:35:00
10:55 PM,53.8,53.8,100,29.94,0.2,Calm,Calm,-,N/A,Fog,Fog,0,2012-12-07 04:55:00
11:15 PM,54.0,54.0,100,29.95,0.2,Calm,Calm,-,N/A,Fog,Fog,0,2012-12-07 05:15:00
11:35 PM,54.0,54.0,100,29.94,0.2,Calm,Calm,-,N/A,Fog,Fog,0,2012-12-07 05:35:00
11:55 PM,53.8,53.8,100,29.95,0.2,Calm,Calm,-,N/A,Fog,Fog,0,2012-12-07 05:55:00